Location: Arapahoe Free Will Baptist Church
(35.0275°N, 76.8265°W)
Time: 03:58:55
(UTC+00:00)

Daily predictions for brighter satellites

Satellite Brightness Start Highest point End
(mag) Time Altitude Azimuth Time Altitude Azimuth Time Altitude Azimuth
Cosmos 1980 3.6 00:03:38 10° NNW 00:09:21 88° ENE 00:15:02 10° SSE
Cosmos 2227 Rocket 2.8 00:09:11 10° SW 00:14:44 57° WNW 00:19:19 15° N
YAOGAN 1 3.9 00:14:40 10° S 00:18:43 40° W 00:22:48 10° NNW
Cosmos 2219 Rocket 4.4 00:17:10 10° NW 00:21:43 25° WSW 00:26:13 10° SSW
ISS -2.1 00:21:52 10° WSW 00:24:17 33° WNW 00:24:17 33° WNW
SL-08 R/B 4.4 00:22:02 10° S 00:28:16 86° E 00:34:39 10° N
Atlas Centaur 2 3.1 00:27:30 10° SW 00:32:32 37° SSE 00:32:42 37° SSE
Cosmos-2242 4.5 00:33:22 10° NNW 00:37:20 36° W 00:41:16 10° SSW
Cosmos 2237 Rocket 4.1 01:06:37 10° NW 01:11:14 27° WSW 01:15:51 10° SSW
SL-16 R/B 4.4 01:26:17 10° NNW 01:27:38 18° NW 01:27:38 18° NW
Cosmos 2297 Rocket 4.0 09:01:43 27° E 09:01:43 27° E 09:04:57 10° SE
Cosmos 2227 Rocket 3.6 09:13:01 35° E 09:13:01 35° E 09:17:10 10° SE
CZ-3 R/B 3.5 09:19:52 43° WSW 09:27:46 65° S 09:35:59 10° E
USA 215 4.4 09:36:39 10° E 09:42:22 34° NNE 09:44:50 26° N
Cosmos 2184 Rocket 4.1 09:42:46 28° N 09:46:11 71° E 09:52:25 10° SSE
COSMOS 2455 3.8 09:43:00 10° S 09:48:39 46° ESE 09:54:22 10° NE
Cosmos 773 Rocket 4.2 09:55:54 60° NNE 09:55:54 60° NNE 10:00:14 10° NNE
Cosmos 1980 Rocket 2.8 09:50:03 10° S 09:55:35 56° ESE 10:01:08 10° NNE
Cosmos 1953 3.9 09:55:01 10° SSE 09:58:41 35° E 10:02:23 10° NNE
Cosmos 2344 3.4 09:58:05 56° W 09:59:22 65° NW 10:07:07 10° NNE
Cosmos 1697 Rocket 3.0 10:05:13 48° NNW 10:05:13 48° NNW 10:09:26 10° NNE
FENGYUN 3A 4.4 09:58:53 10° NNE 10:04:09 51° E 10:09:23 10° S
ATLAS 2AS CENTAUR R/B 3.8 09:57:30 10° S 10:04:58 51° ESE 10:12:40 10° NE
STARLINK-41 4.4 10:07:09 46° ENE 10:07:09 46° ENE 10:10:05 10° NE
COSMO-SKYMED 1 3.5 10:02:45 10° SSE 10:06:53 45° ENE 10:09:34 20° N
Meteor 1-24 Rocket 3.8 10:10:38 56° WSW 10:10:38 56° WSW 10:15:56 10° S
STARLINK-58 3.8 10:12:31 64° ENE 10:12:31 64° ENE 10:16:03 10° NE
STARLINK-62 3.8 10:14:14 65° ENE 10:14:14 65° ENE 10:17:44 10° NE
STARLINK 3.8 10:14:31 62° E 10:14:31 62° E 10:17:57 10° NE
Cosmos 2074 Rocket 3.9 10:13:29 31° NNW 10:16:27 62° W 10:22:33 10° S
Cosmos 1538 Rocket 4.0 10:25:17 10° SSW 10:30:34 61° WNW 10:35:51 10° N
SKYMED 3 4.5 10:26:18 10° SSE 10:30:39 89° ENE 10:33:39 20° NNW
BREEZE-M DEB (TANK) 3.5 10:24:42 25° NW 10:30:54 79° SW 10:34:33 10° SE
Cosmos 2082 3.6 10:28:46 27° NNW 10:31:58 75° WSW 10:37:38 10° SSE
SJ-12 3.7 10:28:18 10° N 10:32:20 67° WNW 10:36:23 10° SSW
MOS 1-B 4.2 10:27:19 10° NNE 10:33:07 84° WNW 10:38:55 10° SSW
STARLINK-34 3.4 10:34:47 60° WNW 10:35:08 64° NW 10:39:08 10° NE
STARLINK-24 3.5 10:36:49 56° WNW 10:37:15 61° NW 10:41:14 10° NE
CZ-4B DEB 4.1 10:31:41 10° NNE 10:37:16 85° WNW 10:42:47 10° SSW
STARLINK-81 3.4 10:37:35 54° W 10:38:16 66° NW 10:42:17 10° NE
STARLINK-67 3.7 10:39:21 36° SSE 10:39:21 36° SSE 10:41:07 10° SE
STARLINK-54 3.5 10:39:33 51° WNW 10:40:07 57° NW 10:44:05 10° NE
STARLINK-77 3.5 10:40:45 48° W 10:41:34 61° NW 10:45:34 10° NE
Cosmos 2228 3.4 10:37:15 10° S 10:41:35 65° E 10:45:57 10° NNE
STARLINK-25 3.5 10:42:17 46° W 10:43:09 59° NW 10:47:08 10° NE
Cosmos 2297 Rocket 3.0 10:43:36 29° W 10:43:46 29° WSW 10:48:33 10° SSW
Cosmos 2322 Rocket 4.0 10:38:59 10° SSE 10:43:57 33° ESE 10:48:58 10° NE
STARLINK-71 3.7 10:44:24 44° WNW 10:45:07 50° NW 10:49:03 10° NE
Cosmos 2181 Rocket 4.2 10:39:57 10° S 10:46:04 72° E 10:52:18 10° N
STARLINK-79 3.6 10:45:31 41° W 10:46:32 55° NW 10:50:30 10° NE
STARLINK-46 4.2 10:47:26 20° NE 10:47:26 20° NE 10:48:57 10° E
STARLINK-78 3.7 10:47:11 39° W 10:48:14 52° NW 10:52:11 10° NE
ALOS 2.3 10:43:57 10° N 10:48:29 51° WNW 10:52:58 10° SSW
STARLINK-57 3.8 10:48:59 38° W 10:50:00 48° NW 10:53:54 10° NE
Cosmos 1602 Rocket 4.0 10:49:53 33° WNW 10:50:45 36° W 10:54:41 10° SSW
SEDSat Delta rocket 3.9 10:47:27 25° WSW 10:50:56 60° S 10:56:13 10° ESE
STARLINK-33 3.8 10:51:06 37° NW 10:51:22 38° NW 10:54:47 10° NNE
STARLINK-49 3.7 10:50:19 36° W 10:51:31 49° NW 10:55:26 10° NE
STARLINK-27 3.8 10:51:56 34° W 10:53:12 47° NW 10:57:06 10° NE
STARLINK-74 3.8 10:53:30 32° W 10:54:50 45° NW 10:58:43 10° NE
SKYMED 2 3.8 10:50:42 10° S 10:54:51 45° W 10:58:08 16° NNW
STARLINK-66 3.9 10:55:12 33° NW 10:55:35 34° NW 10:58:56 10° NNE
Cosmos 2227 Rocket 3.1 10:54:54 24° W 10:55:45 25° WSW 11:00:16 10° SSW
Cosmos 1626 4.2 10:58:10 14° SW 10:58:10 14° SW 10:58:54 10° SW
STARLINK-39 3.9 10:55:06 31° W 10:56:29 44° NW 11:00:21 10° NNE
Cosmos 2341 Rocket 4.0 10:51:11 10° N 10:57:28 88° W 11:03:40 10° S
Helios 1A Rocket 3.0 10:53:44 10° NNE 10:57:53 80° ESE 11:02:00 10° S
STARLINK 3.9 10:56:44 30° W 10:58:10 42° NW 11:02:01 10° NNE
STARLINK-69 4.1 10:58:42 29° W 11:00:02 37° NW 11:03:48 10° NNE
STARLINK-55 4.1 10:59:38 29° NW 11:00:09 30° NW 11:03:24 10° NNE
SL-8 Rocket 4.3 10:54:32 10° N 11:00:43 70° E 11:06:51 10° SSE
STARLINK-21 4.0 10:59:57 27° W 11:01:30 39° NW 11:05:19 10° NNE
STARLINK-42 4.1 11:00:36 28° WNW 11:01:39 34° NW 11:05:09 10° NNE
Cosmos 2263 Rocket 3.6 10:56:55 10° N 11:02:07 36° ENE 11:07:18 10° SE
Cosmos 1953 Rocket 4.0 10:58:04 10° N 11:02:29 64° E 11:06:49 10° SSE
STARLINK-64 4.1 11:02:04 27° WNW 11:03:15 34° NW 11:06:46 10° NNE
STARLINK-45 4.2 11:02:01 26° WNW 11:03:26 34° NW 11:07:08 10° NNE
NOAA 6 4.0 10:59:00 10° N 11:04:09 68° WNW 11:09:18 10° SSW
Cosmos 1680 Rocket 3.6 10:58:57 10° SSW 11:04:15 86° ESE 11:09:36 10° NNE
SL-4 R/B 3.6 11:01:56 12° NNW 11:04:23 22° NNE 11:07:07 10° E
STARLINK-70 4.2 11:03:24 25° W 11:04:58 35° NW 11:08:41 10° NNE
STARLINK-76 4.2 11:04:44 24° W 11:06:31 35° NW 11:10:14 10° NNE
Cosmos 1758 Rocket 3.6 11:03:18 10° NNW 11:07:37 59° W 11:11:57 10° S
STARLINK-28 4.4 11:07:18 23° NW 11:07:57 24° NW 11:10:54 10° NNE
STARLINK 4.2 11:06:20 23° W 11:08:10 34° NW 11:11:52 10° NNE
STARLINK-32 4.3 11:07:57 22° W 11:09:51 33° NW 11:13:32 10° NNE
USA 116 4.2 11:04:57 10° S 11:09:55 60° WSW 11:14:25 10° NNW
Okean O Rocket 1.7 11:06:05 10° N 11:10:27 54° WNW 11:14:45 10° SSW
STARLINK-40 4.3 11:09:32 21° W 11:11:30 32° NW 11:15:10 10° NNE
STARLINK 1036 4.4 11:08:33 10° SSW 11:11:54 43° SE 11:15:15 10° ENE
H-2A R/B 3.1 11:09:05 10° NNE 11:12:59 68° E 11:16:50 10° S
STARLINK-44 4.4 11:11:07 20° W 11:13:09 31° NW 11:16:47 10° NNE
STARLINK-37 4.5 11:12:55 19° W 11:14:56 29° NW 11:18:30 10° NNE
STARLINK-36 4.5 11:14:19 18° W 11:16:29 30° NW 11:20:04 10° NNE
STARLINK 1047 4.1 11:13:35 10° SSW 11:16:59 50° SE 11:20:25 10° NE
STARLINK 1037 4.1 11:13:52 10° SSW 11:17:17 51° SE 11:20:43 10° NE
Cosmos 1726 2.6 11:15:11 10° SSW 11:18:35 35° W 11:21:59 10° NNW
STARLINK 1059 3.9 11:16:25 10° SSW 11:19:52 55° SE 11:23:20 10° NE
Cosmos 2112 Rocket 4.0 11:15:15 10° SSW 11:20:34 79° WNW 11:25:57 10° NNE
Cosmos 1908 3.1 11:16:42 10° SSW 11:20:35 71° W 11:24:29 10° N
NOSS 3-4 (A) 3.4 11:15:05 10° SW 11:20:58 65° WNW 11:27:08 10° NNE
NOSS 3-4 (C) 3.4 11:15:11 10° SW 11:21:04 65° WNW 11:27:15 10° NNE
SL-16 R/B 2.2 11:16:09 10° SSW 11:21:49 88° ESE 11:27:31 10° NNE
PSLV R/B 1.6 11:21:08 22° WSW 11:22:09 80° NNW 11:24:03 10° ENE
STARLINK 1057 3.8 11:19:00 10° SSW 11:22:28 59° SE 11:25:57 10° NE
Milstar 3 Cent rocket 4.3 11:10:59 10° WSW 11:23:27 45° S 11:29:48 10° E
STARLINK 1028 2.8 11:20:40 10° SW 11:23:34 75° SE 11:26:29 10° NE
STARLINK 1021 2.8 11:20:56 10° SW 11:23:49 76° SE 11:26:44 10° NE
STARLINK 1019 2.8 11:21:09 10° SW 11:24:02 76° SE 11:26:55 10° NE
STARLINK 1012 2.8 11:21:21 10° SW 11:24:15 77° SE 11:27:09 10° NE
Cosmos 158 Rocket 3.9 11:19:27 10° SSW 11:24:19 82° ESE 11:29:13 10° NNE
STARLINK 1010 2.8 11:21:34 10° SW 11:24:28 77° SE 11:27:22 10° NE
STARLINK 1026 2.8 11:21:50 10° SW 11:24:43 78° SE 11:27:37 10° NE
STARLINK 1013 2.8 11:22:01 10° SW 11:24:54 78° SE 11:27:49 10° NE
ATLAS 3B R/B 4.0 11:18:44 10° NNW 11:24:55 37° NE 11:31:15 10° ESE
USA 215 3.3 11:18:33 10° SSE 11:25:02 68° SW 11:31:32 10° NW
STARLINK 1052 3.6 11:21:35 10° SW 11:25:04 64° SE 11:28:35 10° NE
STARLINK 1009 2.8 11:22:15 10° SW 11:25:09 79° SE 11:28:03 10° NE
STARLINK 1015 2.7 11:22:30 10° SW 11:25:24 80° SE 11:28:19 10° NE
STARLINK 1016 2.7 11:22:43 10° SW 11:25:36 80° SE 11:28:31 10° NE
STARLINK 1008 2.7 11:22:56 10° SW 11:25:49 81° SE 11:28:44 10° NE
Cosmos 2058 Rocket 3.0 11:21:41 10° SSW 11:26:05 68° W 11:30:27 10° N
STARLINK 1025 2.7 11:23:23 10° SW 11:26:15 82° SE 11:29:09 10° NE
STARLINK 1014 2.7 11:23:29 10° SW 11:26:24 82° SE 11:29:18 10° NE
STARLINK 1017 2.7 11:23:36 10° SW 11:26:30 83° SE 11:29:25 10° NE
STARLINK 1023 2.7 11:23:49 10° SW 11:26:42 83° SE 11:29:37 10° NE
STARLINK 1007 2.7 11:24:03 10° SW 11:26:57 84° SE 11:29:51 10° NE
STARLINK 1048 2.7 11:24:17 10° SW 11:27:11 84° SE 11:30:06 10° NE
STARLINK 1049 2.7 11:24:31 10° SW 11:27:25 85° SE 11:30:20 10° NE
STARLINK 1051 2.7 11:24:43 10° SW 11:27:38 86° SE 11:30:33 10° NE
STARLINK 1068 3.5 11:24:11 10° SW 11:27:41 69° SE 11:31:13 10° NE
Cosmos 2218 Rocket 4.0 11:24:53 10° N 11:31:18 79° W 11:37:35 10° S
CZ-4 R/B 4.5 11:28:36 10° NE 11:31:50 21° E 11:35:01 10° SE
Cosmos 1703 3.2 11:28:52 10° NNW 11:32:48 69° W 11:36:42 10° S
STARLINK 1060 3.3 11:29:25 10° SW 11:32:56 80° SE 11:36:29 10° NE
Cosmos 2360 Rocket 3.6 11:27:58 10° S 11:33:18 44° ESE 11:38:38 10° NE
Cosmos 1825 Rocket 4.2 11:29:34 10° NNW 11:33:27 33° W 11:37:19 10° SSW
COSMOS 2455 3.8 11:29:49 10° WSW 11:34:45 26° NW 11:39:43 10° N
NOSS 3-2 (A) 4.2 11:27:13 10° NW 11:35:03 71° WSW 11:43:35 10° SSE
Cosmos 1953 4.0 11:33:12 10° WSW 11:35:11 13° WNW 11:37:12 10° NW
STARLINK 1030 3.2 11:32:03 10° SW 11:35:35 85° SE 11:39:09 10° NE
CZ-4B R/B 3.7 11:31:24 10° N 11:36:29 38° WNW 11:41:27 10° SW
STARLINK 1020 3.2 11:34:42 10° SW 11:38:14 89° NW 11:41:48 10° NE
Cosmos 1980 Rocket 3.5 11:35:59 10° W 11:39:56 19° WNW 11:43:52 10° NNW
Cosmos 864 Rocket 4.5 11:34:03 10° N 11:40:15 74° W 11:46:29 10° S
STARLINK 1034 3.1 11:37:21 10° SW 11:40:53 84° NW 11:44:27 10° NE
OE (NEXTSAT) 4.4 11:38:04 10° SW 11:41:33 85° SSE 11:45:05 10° ENE
COSMO-SKYMED 1 4.4 11:41:22 10° WSW 11:43:14 13° W 11:45:06 10° WNW
STARLINK 1035 2.9 11:40:22 10° SW 11:43:39 73° NW 11:46:57 10° NE
STARLINK 1027 3.0 11:42:30 10° SW 11:45:47 62° NW 11:49:04 10° NE
STARLINK 1033 3.1 11:42:44 10° SW 11:46:15 73° NW 11:49:49 10° NE
ADEOS Rocket 2.8 11:41:56 10° S 11:47:22 64° WSW 11:52:52 10° NNW
Meteor 1-11 4.2 11:41:47 10° NNW 11:47:23 76° W 11:53:00 10° S
Cosmos 44 Rocket 4.4 11:43:56 10° WNW 11:47:43 24° WSW 11:51:32 10° SSW
SMAP 3.2 11:44:00 10° N 11:48:33 55° WNW 11:53:05 10° SSW
CENTAUR R/B 3.5 11:42:16 10° NNW 11:50:36 80° ENE 11:59:24 10° SSE
Feng Yun 1-1 Rocket 4.4 11:44:56 10° N 11:50:52 77° WNW 11:56:40 10° SSW
